Showing default

SCATSAT 1, 41790

Orbit data source: Space-Track

SCATSAT 1, 41790 is a payload satellite owned by ISRO (IN) in SSO that was launched on Mon, 26 Sep 2016 UTC via a PSLV launch vehicle from the Sirharikota (SRI). Payload-class satellites include a variety of spacecraft equipped with specific instruments for various scientific and technological missions. These include communications satellites like Starlink; space stations such as the ISS; scientific satellites like the Hubble; Earth observation satellites from companies like Planet Labs, Umbra, and HawkEye 360; GPS; miniature CubeSats for education and research; and military/defense satellites.

Loading next visibility...
Identifier
41790, 2016-059H
Orbit
SSO
Last TLE update
10 hours ago
Origin
Manufacturer
ISRO SAC/Banga
Mission
Operational Civil Science
Bus & Motor
SSB-2, Unknown motor
Mass
370 kg wet, ~350 kg dry
Launch date (UTC)
2016-09-26 (9 years ago)
Launch vehicle
PSLV
Launch site
Sirharikota (SRI)
Object type
Payload
Rocket body
Debris
Shape & HBR
Box + 2 Pan, 4 m
Radar Cross Section
4.015 m², Large (>1 m²)

Expand to show TLE details & history

TLE from 10 hours ago
0 SCATSAT 1
1 41790U 16059H   25183.42512278  .00000774  00000-0  11177-3 0  9990
2 41790  98.1681 237.9002 0054655 294.3807  65.1704 14.78265801 49892
Epoch: 2025-07-02T10:12Z
TLE epoch observation values (Epoch: 2025-07-02T10:12:10.608Z)
Latitude
-0.00005°
Longitude
164.1496°
Altitude
621.889 km
Speed
7.556 km/s
True Right ascension
15h 51m 36s
True Declination
0° 00' 00"
Sunlit
Object was in full shadow at epoch
Visualization orbit readout
Latitude
22.74046°
Longitude
-11.97806°
Altitude
665.098 km
Speed
7.512 km/s
Apparent Right ascension
01h 05m 55s
Apparent Declination
-12° 23' 36"
Sunlit
Object is in daylight
Visualization observer readout
Local Sidereal Time
08:23:49
Azimuth
272.756° WNW
Elevation
-22.796°
Doppler factor
1
Orbital elements
Apogee altitude
670.172 km
Perigee altitude
593.546 km
Semi-major axis
7,009.996 km
Eccentricity
0.00547
Inclination
98.1681°
RAAN
237.9002°
Arg. of periapsis
294.3807°
True anomaly
Unknown
Mean anomaly
65.1704°
Eccentric anomaly
Unknown
Mean motion
3.698 °/min
Orbital period
97.35 mins
BSTAR
0.00011177
Loading maneuver chart data...
Loading SW <> Apogee altitude chart data...
Loading historical data...
Loading historical data...
Loading historical data...
Loading historical data...
Loading historical data...
Loading historical data...
Loading historical data...

SCATSAT 1 Visibility forecast

Observer location: undefined°, undefined°

Span
Click to sort rows by Start time (UTC) header in descending order
Start Az.
Max El. time (UTC)
Max El. Az.
Max El.
End time (UTC)
End Az.
6 mins2025-07-03 02:35:45.274Z111.037° ESE2025-07-03 02:38:45.274Z67.528° E18.602°2025-07-03 02:41:45.274Z22.725° NE
6 mins2025-07-03 04:12:45.274Z209.129° SW2025-07-03 04:14:45.274Z255.995° W31.6°2025-07-03 04:18:45.274Z328.832° NNW
7 mins2025-07-03 16:01:45.274Z34.869° NE2025-07-03 16:04:45.274Z91.322° ESE32.696°2025-07-03 16:08:45.274Z166.101° S
4 mins2025-07-03 17:39:45.274Z315.974° NNW2025-07-03 17:40:45.274Z299.019° NW18.673°2025-07-03 17:43:45.274Z253.318° W
|